Regional Weather Roundup
Issued by NWS Grand Forks, ND

Home | Current Version | Previous Version | Graphics & Text | Print | Product List | Glossary On
Versions: 1 2 3 4 5 6 7 8 9 10 11 12 13 14 15 16 17 18 19 20 21 22 23 24 25 26 27 28 29 30 31 32 33 34 35 36 37 38 39 40 41 42 43 44 45 46 47 48 49 50
426
ASUS43 KFGF 190810
RWRFGF
PRAIRIE TO PINES  WEATHER ROUNDUP
NATIONAL WEATHER SERVICE EASTERN NORTH DAKOTA/GRAND FORKS ND
200 AM CST FRI JAN 19 2018

 **SATELLITE DATA USED TO AUGMENT SKY COVER AT AUTOMATED STATIONS**
 *****  WEATHER ACROSS EASTERN NORTH DAKOTA  *****

CITY           SKY/WX    TMP DP  RH WIND       PRES   REMARKS
GRAND FORKS    FAIR      30  26  85 S10       29.48F WCI  21
GRAND FRKS AFB FAIR      36  28  72 SW8       29.47F
GRAND FRKS NWS   N/A     30 N/A N/A S12         N/A  WCI  21
DEVILS LAKE    FAIR      33  27  78 SW10      29.50F WCI  25
FARGO          FAIR      32  27  81 S14         N/A  WCI  22
WAHPETON ARPT  FAIR      30  25  80 SE6       29.60F WCI  24
$$

 ***** WEATHER ACROSS CENTRAL AND WESTERN NORTH DAKOTA  *****

CITY           SKY/WX    TMP DP  RH WIND       PRES   REMARKS
BISMARCK       FAIR      31  26  82 W8        29.58S WCI  23
MINOT          FAIR      39  30  70 SW13      29.49F
JAMESTOWN      FAIR      35  28  75 NW12      29.56R
MINOT AFB      CLOUDY    38  31  74 W15       29.47F
GARRISON         N/A     33  26  75 W7        29.55F
WILLISTON      FAIR      59  30  33 SW7       29.56S
DICKINSON      FAIR      36  27  69 W9        29.56F
HETTINGER      FAIR      31  25  78 NW9       29.61F WCI  23
$$

 *****  OTHER AIRPORT OBSERVATIONS IN OUR AREA  *****

CITY           SKY/WX    TMP DP  RH WIND       PRES   REMARKS
WALHALLA       FAIR      39  30  70 W8        29.43S
GRAFTON AIRPOR FAIR      30  27  86 SW13      29.47F WCI  20
VALLEY CITY AR FAIR      27  27 100 SW3       29.57R
CANDO          FAIR      28  28 100 SW8       29.50S WCI  20
CAVALIER APRT    N/A     39  30  70 W17       29.42S
GWINNER          N/A     32  27  80 SW17      29.58F WCI  21
SHEYENNE NWR     N/A     33  29  84 SW10      29.95S WCI  25
ROLLA          CLOUDY    37  30  75 W15       29.45S
 ***** THE ABOVE OBSERVATIONS ARE NON NWS ARE NOT QUALITY
       CONTROLLED AND MAY MIS-REPORT RAIN FOR SNOW...
$$

  *****  WEATHER ACROSS NORTHERN MINNESOTA  *****

CITY           SKY/WX    TMP DP  RH WIND       PRES   REMARKS
FLAG ISLAND    FAIR      21  18  86 S8        29.44S WCI  12
WARROAD        FAIR      28  25  86 SW7       29.46R WCI  21
ROSEAU         FAIR      30  25  80 S5        29.46S
HALLOCK        FAIR      27  25  93 S14       29.45F WCI  15
THF RVR FALLS  FAIR      30  26  85 S15       29.50F WCI  19
BAUDETTE       FAIR      28  22  78 S6        29.46F WCI  22
WASKISH        FAIR      34  25  69 SW8       29.49S
CROOKSTON      FAIR      30  27  86 S16       29.52F WCI  19
STEPHEN NDAWN    N/A     28  25  86 S9          N/A  WCI  20
GREENBUSH NDAW   N/A     28  25  86 S12         N/A  WCI  18
$$
  *****  WEATHER ACROSS CENTRAL AND WEST MINNESOTA  *****

CITY           SKY/WX    TMP DP  RH WIND       PRES   REMARKS
FOSSTON        FAIR      28  23  80 S15       29.53F WCI  17
BEMIDJI        FAIR      30  23  75 SW5       29.52F
PARK RAPIDS    FAIR      26  21  81 SE3       29.57F
ELBOW LAKE     FAIR      29  26  86 S9        29.62F WCI  21
WADENA         FAIR      28  23  80 SW3       29.60S
DETROIT LAKES  FAIR      32  27  80 S6        29.59F
MOORHEAD       FAIR      30  25  80 S10       29.58F WCI  21
FERGUS FALLS   FAIR      27  21  80 S7        29.61F WCI  19
MORRIS MN      FAIR      30  27  86 S8        29.63F WCI  23
STAPLES        FAIR      27  23  86 S3        29.60F
$$
  *****  WEATHER ELSEWHERE ACROSS MINNESOTA  *****

CITY           SKY/WX    TMP DP  RH WIND       PRES   REMARKS
DULUTH         FAIR      27  22  81 SW7       29.60F WCI  19
INTRNTL FALLS  FAIR      22  20  92 SE3       29.50F
ELY            FAIR      25  23  93 S6        29.55F WCI  18
CLOQUET        FAIR      27  21  80 S6          N/A  WCI  20
WHEATON        FAIR      36  27  69 S8        29.63F
BRAINERD       FAIR      32  25  75 S7        29.61F
HIBBING        FAIR      21  19  92 S5        29.57F WCI  15
ALEXANDRIA     FAIR      33  26  75 SW9       29.62F
SAINT CLOUD    FAIR      27  25  92 SE7       29.65F WCI  19
MINNEAPOLIS    CLOUDY    31  27  85 CALM      29.71F
$$

  *****  WEATHER ACROSS SOUTH DAKOTA  *****

CITY           SKY/WX    TMP DP  RH WIND       PRES   REMARKS
SIOUX FALLS    FAIR      30  27  88 CALM      29.71F
BROOKINGS      FAIR      29  26  89 SE7       29.68F WCI  22
WATERTOWN      FAIR      28  26  92 S8        29.65F WCI  20
HURON          FAIR      27  25  92 SE6       29.64F WCI  20
SISSETON         N/A     45  26  47 SW14      29.58F
ABERDEEN       FAIR      26  24  92 S13       29.62F WCI  15
MITCHELL       FAIR      31  28  89 S7        29.68F WCI  24
PIERRE         FAIR      25  23  92 CALM      29.62F
MOBRIDGE       FAIR      31  25  78 SE7       29.57F WCI  24
RAPID CITY     FAIR      43  27  53 W3        29.62F
$$

  *****  SOME WEATHER IN NEARBY STATES *****

CITY           SKY/WX    TMP DP  RH WIND       PRES   REMARKS
GLASGOW MT     CLOUDY    42  31  64 N14       29.58S
GREAT FALLS MT CLOUDY    35  32  88 SW13      29.65F
CHEYENNE WY    FAIR      44  17  33 W8        29.88F
SCOTTSBLUFF NE FAIR      32  28  85 CALM      29.80F
OMAHA NE       MOCLDY    27  21  78 SE10      29.84F WCI  17
DES MOINES IA  FAIR      31  22  69 MISG      29.87F
DAVENPORT IA   FAIR      30  20  66 SW12      29.93F WCI  20
CHICAGO IL     FAIR      30  18  60 SW13      29.93S WCI  20
EAU CLAIRE WI  FAIR      23  20  88 SW3       29.73F
LA CROSSE WI   FAIR      27  20  75 S8        29.81S WCI  19
$$

  *****  SOME NATIONAL WEATHER *****

CITY           SKY/WX    TMP DP  RH WIND       PRES   REMARKS
LA GUARDIA NY  FAIR      26  13  57 NW8       30.04S WCI  18
RALEIGH NC     FAIR      23  20  88 SW3       30.21S
ATLANTA GA     FAIR      27  14  58 W5        30.29S WCI  22
NEW ORLEANS LA FAIR      31  25  78 CALM      30.40S
OKLAHOMA CITY  FAIR      26  14  60 S10       30.12F WCI  16
ALBUQUERQUE NM MOCLDY    34  11  38 SE5       30.17F
SALT LAKE CITY MOCLDY    56  28  34 S22G32    29.85F
LOS ANGELES CA FAIR      59  57  93 CALM      30.04S
BOISE ID       LGT RAIN  39  36  89 E3        29.83F
SEATTLE WA     MOCLDY    41  36  82 S9        29.81R
$$

*** WEATHER ACROSS MANITOBA...SASKATCHEWAN AND ONTARIO ***
                ***ONTARIO***

CITY           SKY/WX    TMP DP  RH WIND       PRES   REMARKS
GERALDTON      LGT SNOW  16  14  93 S2        29.58R
THUNDER BAY    CLOUDY    27  25  93 CALM      29.60S
SIOUX LOOKOUT  CLOUDY    23  21  93 S8        29.45F WCI  14
TORONTO        MOCLDY    21  14  73 SW8       29.89R WCI  12
BIG TROUT LK   LGT SNOW   7   5  92 SE6       29.50F WCI  -3
PICKLE LAKE    NOT AVBL
DRYDEN         MOCLDY    23  23 100 S8        29.43F WCI  14
KENORA         CLOUDY    23  21  93 S13       29.40F WCI  11
$$
                *** MANITOBA***

CITY           SKY/WX    TMP DP  RH WIND       PRES   REMARKS
BRANDON        CLOUDY    36  30  80 W20       29.38F
DAUPHIN        CLEAR     37  32  81 SW14G20   29.29R
ISLAND LAKE    FLURRIES  16  10  79 SE10      29.32F WCI   3
PILOT MOUND      N/A     34  28  80 SW8         N/A
THE PAS        LGT SNOW  12   9  85 VRB2      29.28R
THOMPSON       LGT SNOW   5   1  85 NE10      29.40F WCI -10
WINNIPEG       NOT AVBL
LYNN LAKE      FLURRIES   5   3  92 E9        29.37F WCI  -9
CHURCHILL      FLURRIES   0  -4  85 NE2       29.69F
GILLAM         LGT SNOW   0  -4  85 NE9       29.51F WCI -16
$$
                ***SASKATCHEWAN***

CITY           SKY/WX    TMP DP  RH WIND       PRES   REMARKS
ESTEVAN        MOCLDY    37  30  75 SW14      29.47F
KINDERSLEY     PTCLDY    30  25  80 W14G20    29.41S WCI  20
LLOYDMINSTER   CLOUDY    34  28  80 W12G17    29.36R
PRINCE ALBERT  CLOUDY    27  25  93 W6        29.30F WCI  20
REGINA         MOCLDY    34  27  75 W13       29.40F WCI  25
YORKTON        CLOUDY    36  32  87 W16       29.30S
N. BATTLEFORD  CLOUDY    34  27  75 W8        29.37R
LA RONGE       FLURRIES  18  14  86 NE6       29.29F WCI   9
SASKATOON      MOCLDY    32  28  86 SW9       29.36R WCI  24
SWIFT CURRENT  MOCLDY    36  27  69 W29G35    29.46R
$$
NOTE: THESE ARE AUTOMATED STATIONS WITH LIMITED QUALITY CONTROL
      "FAIR" INDICATES FEW OR NO CLOUDS BELOW 12,000 FEET WITH NO
      SIGNIFICANT WEATHER AND/OR OBSTRUCTIONS TO VISIBILITY.
      SKY/WX - SKY CONDITION AND SIGNIFICANT WEATHER.
      TMP - AIR TEMPERATURE.    DP   - DEWPOINT TEMPERATURE.
      RH  - RELATIVE HUMIDITY.  PRES - PRESSURE.
      HX  - HEAT INDEX.         WCI  - WIND CHILL INDEX.
$




USA.gov is the U.S. government's official web portal to all federal, state and local government web resources and services.